Theta_e
324 325 325 325 326 329 330 330 330 330 330 330 330 328 327 328 328 328 328 329 329 328 328 328 327 327 327 327 326 326 326 325 325 324 324 323 323 322 321 321 320 320 320 321 322 324 327 329 330 330 332 331 327 326 326 326 326 326 326 325 325 324 324 324 324 322 321 321 318 316 320 322 324 331 334 333 334 335 333 331 332 333 332 332 333
321 322 325 325 325 327 328 329 329 330 330 331 331 330 329 328 328 327 327 327 327 326 326 326 326 326 326 327 327 327 327 327 326 326 325 325 324 322 322 321 321 320 320 320 322 323 325 327 328 330 331 331 330 330 329 328 327 326 327 328 328 327 327 327 326 325 323 322 320 319 321 324 330 336 336 335 334 335 334 329 328 331 332 330 330
319 320 323 324 325 325 326 327 327 328 329 331 331 331 331 330 329 328 327 327 326 325 325 326 326 326 327 328 328 327 327 327 327 326 326 325 324 323 322 322 322 322 322 323 324 325 328 328 329 332 332 331 332 332 331 330 327 325 325 326 327 328 328 328 327 327 326 323 322 322 324 328 334 336 337 336 334 333 331 327 323 325 331 332 330
317 319 321 323 324 324 324 325 326 326 327 331 331 331 331 331 330 328 327 326 325 324 324 325 325 326 328 330 329 326 325 325 324 324 324 324 323 323 323 323 323 323 326 328 329 330 331 330 330 331 331 331 332 332 331 329 325 323 324 324 325 326 327 327 327 327 327 325 323 323 325 330 334 336 337 337 336 335 332 328 322 319 324 327 325
317 317 319 321 322 322 323 323 324 323 324 329 331 330 330 331 329 328 327 325 324 324 323 324 324 325 327 329 330 327 325 325 325 325 323 323 323 323 324 324 325 326 328 332 333 332 331 330 330 331 330 331 332 331 330 327 324 323 323 324 324 325 325 326 327 327 327 327 325 323 323 327 332 334 335 336 337 337 336 333 328 322 319 319 318
317 316 317 319 320 320 320 321 320 319 320 324 329 329 329 330 329 327 326 325 325 325 325 325 325 325 325 328 330 329 328 330 330 328 325 323 322 324 324 325 327 328 329 332 333 332 331 330 330 330 330 331 331 331 329 326 325 324 322 322 322 322 323 324 325 327 327 327 327 325 323 323 327 332 334 335 335 336 337 335 332 327 323 321 320
319 316 316 318 318 317 317 318 317 316 316 319 323 325 326 328 329 328 328 327 327 327 326 326 326 327 327 330 331 330 331 332 332 330 328 325 324 324 324 326 329 330 330 331 330 329 330 330 330 330 330 331 331 330 328 326 324 321 318 316 316 316 317 318 320 323 326 327 328 327 326 322 322 327 331 333 334 335 336 336 334 331 326 323 321
321 318 316 316 316 315 316 316 316 315 315 316 317 320 322 324 326 327 328 328 328 328 327 327 328 328 329 331 331 331 332 333 333 331 329 328 327 327 327 326 328 329 329 328 326 325 326 327 329 329 330 331 332 331 328 324 318 314 313 312 312 312 313 313 314 317 321 326 328 329 328 327 324 323 326 329 332 333 333 334 334 333 331 328 323
321 319 316 315 315 315 316 316 316 315 315 316 316 317 318 319 322 324 325 325 326 327 327 328 328 329 330 331 332 332 333 334 332 329 328 328 328 328 328 327 327 327 326 326 324 320 319 319 320 321 322 326 328 326 322 317 312 311 311 311 311 311 311 311 312 312 315 319 324 327 329 329 328 326 325 324 325 327 329 332 332 333 333 331 327
322 320 318 316 315 315 315 316 316 316 315 315 316 316 317 318 320 321 322 322 324 326 327 327 328 331 332 332 333 333 333 334 331 327 326 326 327 327 327 327 326 326 323 321 318 314 313 313 313 313 314 315 317 316 314 311 309 309 308 308 307 307 307 308 309 310 311 313 317 321 326 328 329 331 330 326 325 324 324 326 327 329 330 329 328
322 320 318 317 316 315 315 315 315 316 315 315 315 316 318 318 319 319 319 320 322 324 326 328 330 332 333 333 333 334 333 332 329 324 325 324 324 324 325 325 325 323 318 314 313 311 311 311 311 311 311 310 310 309 308 307 306 305 305 305 305 305 305 305 305 306 308 309 312 314 318 322 326 330 330 329 329 328 325 324 324 325 326 327 327
322 321 320 318 317 316 315 315 315 315 315 315 316 316 318 318 318 317 317 319 321 324 326 329 330 332 334 333 333 331 330 330 327 323 322 320 317 318 319 320 319 318 314 312 311 310 309 309 309 308 307 307 306 305 304 304 304 304 304 304 304 304 304 304 304 304 305 305 307 309 312 314 319 325 327 328 329 328 329 327 326 326 326 327 327
322 322 321 320 318 317 315 315 315 315 315 315 316 317 318 318 317 316 318 320 322 326 329 330 330 332 333 331 330 329 328 327 325 321 318 315 313 313 313 314 313 313 312 310 308 307 306 305 305 305 304 304 304 304 304 304 304 304 304 305 305 304 304 304 304 304 304 304 304 305 307 308 311 316 319 323 325 325 327 328 329 328 328 328 328
321 321 321 321 319 318 316 315 315 315 314 315 315 316 316 317 316 316 320 323 326 328 329 328 327 328 328 327 327 327 326 323 319 315 313 312 311 311 311 311 310 310 308 306 305 304 304 304 304 303 303 303 303 303 304 304 305 305 306 306 306 306 306 305 305 305 304 304 304 304 304 304 306 308 311 316 318 320 323 325 327 328 329 329 329
319 320 321 321 320 319 318 316 315 315 315 315 315 315 315 316 315 316 321 324 326 327 326 324 322 323 323 323 323 323 321 318 315 312 310 311 310 310 309 308 307 306 305 304 304 304 304 303 304 303 303 303 304 304 305 306 306 307 307 307 307 307 307 307 307 306 306 305 304 304 304 304 304 304 306 310 312 315 317 320 323 325 326 327 328
317 318 319 320 320 320 319 317 316 315 315 315 315 316 315 315 313 314 318 320 321 321 321 321 320 321 321 319 318 318 316 314 313 311 309 308 307 306 306 305 304 304 304 304 303 303 303 303 303 303 304 304 305 306 307 307 307 307 307 307 307 307 308 308 307 307 307 306 305 304 303 303 303 303 303 305 307 309 311 314 318 320 321 323 325
317 317 317 318 319 319 319 318 317 316 315 315 315 316 315 314 313 312 314 316 316 316 317 319 320 319 317 315 315 314 313 312 311 309 307 306 305 305 304 304 304 304 304 303 303 303 303 303 303 304 305 306 307 307 307 307 307 307 307 307 307 307 307 307 308 308 307 307 306 305 304 303 303 303 303 303 303 304 305 308 311 312 315 317 319
317 316 315 316 318 318 319 318 318 317 316 315 315 315 315 313 312 312 313 313 314 315 315 317 319 317 314 313 313 313 312 310 309 308 306 305 305 305 305 304 304 304 304 303 303 303 303 303 304 305 306 307 307 307 307 306 307 307 307 307 307 307 307 307 307 307 308 307 306 305 305 304 303 303 302 303 303 303 303 304 305 306 309 311 313
317 316 315 315 316 317 318 318 318 318 317 316 315 315 315 313 312 312 312 313 312 313 313 315 316 315 313 313 312 312 311 310 308 306 305 305 305 305 305 304 304 304 303 303 303 303 303 304 305 306 306 306 306 306 306 306 306 306 306 306 307 307 307 307 307 307 307 307 307 306 305 304 304 303 303 303 303 303 303 303 303 303 304 306 308
317 317 316 315 315 316 317 317 318 317 317 316 315 315 315 314 313 312 312 313 312 312 313 313 313 313 312 312 311 310 310 309 307 305 305 305 305 305 304 304 304 303 303 303 303 303 303 304 305 306 306 306 305 305 305 305 306 306 306 306 306 306 307 306 307 307 307 307 306 306 305 305 304 304 303 303 303 302 302 302 302 302 303 303 304
317 317 316 316 315 315 315 316 316 317 317 317 316 316 315 314 313 313 312 312 313 313 313 312 311 311 311 310 309 309 309 308 305 304 305 305 305 304 304 304 303 303 303 303 303 303 304 304 305 305 305 305 305 305 305 305 305 305 305 306 306 306 306 306 306 306 306 306 306 306 305 305 304 304 304 304 303 303 302 302 302 302 302 302 302
316 317 317 316 316 315 315 315 315 315 316 316 316 316 315 315 314 313 313 312 313 313 313 313 311 310 310 309 309 309 308 306 304 304 305 305 305 304 304 303 303 303 303 302 302 303 304 304 305 305 305 305 304 305 305 305 305 305 305 305 306 306 306 306 306 306 306 306 306 306 305 305 305 304 304 304 304 303 302 302 302 302 302 302 302
316 316 316 316 316 316 316 315 315 315 315 315 316 316 316 315 314 314 313 313 313 313 313 313 311 310 310 309 308 308 307 305 304 305 305 305 305 304 304 303 303 303 302 302 302 303 304 304 305 305 304 304 304 305 305 305 305 305 305 305 305 305 305 305 305 305 305 306 306 305 305 305 304 304 304 304 303 303 302 302 301 301 301 301 302
316 316 316 316 316 316 316 316 315 315 315 315 315 315 316 315 315 314 314 314 313 313 313 313 312 311 310 309 308 308 306 304 304 305 305 305 305 304 303 303 303 302 302 302 303 303 304 304 304 304 304 304 304 305 305 305 305 305 305 305 305 305 305 305 305 305 305 305 305 305 305 304 304 303 303 303 303 302 302 301 301 301 301 301 301
315 315 316 316 316 316 316 316 316 315 315 315 315 315 315 316 315 315 314 314 313 313 313 313 312 311 310 309 308 308 306 304 304 305 305 305 305 304 303 303 303 303 302 302 303 303 303 304 304 304 304 304 304 305 305 305 305 305 305 305 304 304 304 304 304 304 305 305 305 305 304 304 303 303 302 303 302 302 301 301 301 300 301 301 301
315 315 315 315 316 316 316 316 316 316 315 315 315 315 315 315 315 315 315 314 313 313 313 313 313 312 311 309 309 308 305 304 304 305 305 306 306 305 304 303 303 302 302 302 302 303 303 304 304 304 303 304 304 304 305 305 305 304 304 304 304 304 304 304 304 304 304 304 305 304 303 303 302 302 302 301 301 301 301 301 301 300 301 302 302
315 315 315 315 315 315 316 316 316 316 316 316 315 315 314 314 315 315 315 315 314 313 313 313 312 312 311 310 309 308 306 304 304 305 305 306 306 306 304 303 303 302 302 302 302 302 303 304 303 303 303 303 304 304 304 304 304 304 304 304 303 303 303 303 303 304 304 304 304 304 303 302 301 300 300 300 300 300 300 301 301 301 302 303 304
315 315 315 315 315 315 315 315 316 316 316 316 315 315 315 314 314 314 315 315 314 314 313 313 313 312 311 310 309 308 307 305 304 305 305 306 306 306 305 303 302 302 302 302 302 302 303 303 303 303 303 303 303 303 304 304 304 304 304 303 303 303 303 303 303 303 303 304 304 304 303 302 301 300 299 299 299 300 302 303 304 304 303 304 306
315 315 315 315 315 315 315 315 315 316 316 316 316 315 315 315 314 314 314 315 315 314 314 313 313 312 311 311 310 309 307 306 304 304 305 305 306 306 305 304 303 302 302 301 301 302 302 303 303 303 303 303 303 303 303 304 304 304 304 303 303 303 303 303 303 303 303 303 304 304 303 302 301 300 299 298 299 300 303 305 306 306 303 303 306
315 315 315 315 315 315 315 315 315 315 316 316 316 316 316 315 315 314 314 314 314 314 314 314 313 312 312 311 310 309 308 307 305 304 304 305 305 306 305 304 303 302 302 301 301 301 302 302 302 302 302 302 303 303 303 303 303 304 303 303 303 303 303 302 302 302 303 303 303 303 303 302 301 300 299 298 298 299 301 304 305 304 303 305 308
314 314 315 315 315 315 315 315 315 315 315 315 316 316 316 316 315 315 314 314 314 314 314 314 313 313 312 312 311 310 309 308 306 305 304 304 305 305 305 305 304 303 302 301 301 301 302 302 302 302 302 302 303 303 303 303 303 303 303 303 303 303 302 302 302 302 302 302 303 303 303 302 301 300 298 298 297 298 300 302 302 302 303 307 310
314 314 314 314 314 315 315 315 315 315 315 315 315 316 316 316 316 315 315 314 314 314 314 314 314 313 313 312 311 311 309 308 308 306 304 304 304 304 305 305 304 304 302 301 301 301 301 302 302 302 302 302 302 303 303 303 303 302 302 302 302 302 302 302 302 302 302 302 302 303 303 302 300 299 298 298 297 298 299 300 300 302 304 307 310
314 314 314 314 314 314 314 315 315 315 315 315 315 315 315 316 316 315 315 315 314 314 314 314 314 314 313 312 312 311 310 309 308 307 305 303 303 304 304 304 304 304 303 302 301 301 301 302 302 302 302 302 302 303 303 302 302 302 302 302 302 302 302 302 302 302 302 302 302 302 302 302 300 299 298 297 297 297 298 298 299 301 305 307 307
314 313 313 313 314 313 313 314 314 315 315 314 315 315 315 315 315 316 315 315 315 314 314 314 314 314 313 313 312 311 310 309 309 308 306 303 303 303 304 304 304 304 303 302 301 301 301 301 302 302 301 302 302 302 302 302 302 302 302 302 302 302 302 302 302 302 302 302 302 302 302 302 301 299 298 297 297 297 297 297 298 300 302 303 302
314 313 313 313 313 313 313 313 314 314 314 314 315 315 315 315 315 315 315 315 315 315 315 314 314 314 314 313 312 312 311 310 309 308 307 304 303 303 303 303 304 304 303 302 301 301 301 301 301 301 301 301 301 302 302 302 302 302 302 302 302 302 302 302 302 301 301 301 302 302 302 301 300 300 298 298 297 297 296 297 297 298 299 299 300
313 313 313 313 312 313 313 313 313 314 314 314 314 315 315 314 315 315 315 315 315 315 315 314 314 314 314 314 313 312 311 310 309 308 307 306 304 302 302 303 303 303 302 302 301 301 301 301 301 301 301 301 301 301 302 302 301 301 301 301 301 301 302 302 301 301 301 301 301 301 301 300 299 299 298 298 297 297 296 296 296 296 297 298 298
313 314 314 313 313 313 312 313 313 313 314 314 314 314 314 314 314 314 315 315 315 315 315 315 314 314 314 314 313 313 312 310 309 308 307 307 305 302 302 302 302 302 302 302 301 301 301 301 301 301 301 301 301 301 301 301 301 301 301 301 301 301 301 301 301 301 301 300 300 300 300 299 298 298 297 297 297 296 296 296 296 296 296 296 296
313 314 314 314 314 313 313 313 313 313 313 313 313 313 313 314 314 314 314 314 314 314 315 315 314 314 314 314 314 313 313 311 309 308 307 307 306 303 302 302 302 302 302 302 301 301 300 300 301 301 300 300 301 301 301 301 301 301 300 300 300 301 301 301 301 300 300 300 300 300 299 298 297 297 296 296 296 296 296 296 296 296 296 296 296
314 314 314 314 314 314 314 313 313 312 312 312 312 312 312 313 313 314 314 314 314 314 314 314 314 314 314 314 314 314 313 312 310 308 307 306 306 305 302 301 301 301 301 301 301 300 300 300 300 300 300 300 300 301 301 300 300 300 300 300 300 300 301 300 300 300 299 299 299 298 298 297 296 295 295 295 295 295 295 295 295 295 295 295 295
313 314 314 314 314 313 313 313 313 312 312 312 311 311 312 312 312 313 313 313 314 314 314 314 314 314 314 314 314 313 313 313 311 309 307 307 306 306 304 301 301 301 301 301 301 301 300 300 300 300 300 300 300 300 300 300 300 300 299 299 300 300 300 300 300 299 299 298 297 297 296 296 295 295 295 295 295 295 295 295 295 295 295 295 295
313 312 312 312 312 312 312 312 312 312 311 311 311 311 311 311 311 312 312 313 313 313 313 314 314 314 314 314 314 313 313 313 312 311 308 307 306 306 305 302 301 300 300 301 301 300 300 300 300 299 299 299 300 300 300 300 299 299 299 299 299 299 300 300 299 299 298 297 297 296 296 295 295 295 294 294 294 294 294 294 294 294 294 294 294
312 312 312 311 311 311 311 311 311 311 311 311 310 311 310 310 311 311 311 312 312 312 313 313 313 313 313 313 314 313 313 313 313 311 309 307 305 305 305 304 301 300 300 300 300 300 300 300 299 299 299 299 299 300 300 299 299 298 298 299 298 298 299 298 298 298 297 297 296 296 295 295 295 294 294 294 294 294 294 294 294 294 294 294 294
311 312 312 311 311 311 310 310 310 310 310 310 310 310 310 310 310 310 310 310 311 311 312 312 312 313 313 313 314 314 314 313 313 312 310 307 305 304 304 304 303 301 300 300 300 299 299 299 299 299 299 299 299 299 299 299 299 298 298 298 298 298 297 297 297 297 297 296 296 295 295 294 294 294 294 294 294 294 294 294 294 294 294 294 293
311 312 312 311 311 310 310 310 309 309 309 309 309 309 309 309 309 309 309 309 310 310 311 311 311 312 312 313 313 314 314 313 313 313 311 308 306 304 304 304 304 302 300 300 300 299 299 299 299 298 298 298 299 299 299 299 299 299 298 298 298 297 297 298 298 297 297 296 295 295 294 294 293 293 293 293 294 294 294 294 294 294 293 293 293
310 311 311 311 311 311 311 310 310 309 309 309 309 308 308 308 308 308 308 308 308 309 309 310 311 311 312 312 313 313 314 314 313 313 312 310 307 305 303 303 304 303 301 300 299 299 299 299 299 298 298 298 299 299 299 299 299 299 298 299 298 298 299 300 298 297 297 296 295 295 294 294 293 293 293 293 293 294 294 294 293 293 293 293 293
309 309 310 310 311 311 311 311 310 310 309 309 308 308 308 308 308 307 308 308 308 308 309 309 310 310 310 311 312 312 313 313 313 313 312 311 308 306 304 303 303 303 302 300 299 299 299 299 299 298 298 298 298 299 299 299 298 298 299 299 299 299 300 299 298 297 297 296 296 295 294 294 294 294 294 293 293 293 294 294 293 293 293 293 292
308 309 310 310 310 311 311 311 310 310 309 309 308 307 307 307 307 307 307 307 308 308 308 308 308 309 309 309 309 310 311 311 312 312 312 311 309 307 305 303 302 302 303 302 300 299 299 299 298 298 298 298 298 298 299 299 298 298 298 298 299 299 299 299 298 298 297 297 297 296 295 295 294 294 295 294 294 293 293 293 293 293 293 292 292
307 309 310 310 310 310 310 310 310 309 309 308 308 307 307 306 306 306 306 306 306 307 307 307 307 307 307 308 308 308 308 309 310 311 311 311 310 308 305 303 301 301 302 302 302 300 299 298 298 298 298 297 297 298 298 298 298 298 299 299 299 299 299 299 298 299 299 298 298 297 296 296 295 295 295 295 294 294 293 293 293 292 292 292 292
307 308 309 310 309 309 309 309 309 308 308 308 307 306 306 305 305 305 305 306 305 305 306 306 306 306 306 306 306 307 307 307 308 309 309 309 309 309 306 303 301 300 300 301 302 301 299 298 298 298 297 297 297 298 298 298 298 298 299 299 299 298 298 298 298 298 299 299 299 298 298 297 296 295 295 295 295 294 293 293 292 292 292 292 292
307 307 308 309 309 308 308 308 308 308 308 307 306 306 305 305 304 304 304 304 304 304 305 305 305 305 305 305 305 306 306 306 306 307 307 308 308 308 307 304 301 300 299 300 301 301 300 298 298 298 297 297 297 297 297 298 298 298 298 298 298 298 298 298 298 298 298 298 298 298 298 297 296 296 295 295 295 294 293 293 292 292 292 292 291
307 307 308 308 308 307 307 308 309 308 308 307 306 305 304 304 304 304 304 304 304 304 304 304 304 304 304 304 304 304 305 305 305 305 305 306 306 306 306 305 302 300 299 299 300 301 300 299 298 297 297 297 297 297 297 298 298 298 298 298 298 298 298 298 298 298 298 298 298 298 298 297 296 295 295 295 294 293 293 292 292 292 292 292 292
Wind_Speed
20 20 19 19 20 20 20 19 18 18 18 17 15 14 13 12 11 11 11 11 11 11 10 9 9 8 8 8 7 7 7 7 7 7 7 6 6 5 4 3 2 2 2 2 2 2 1 1 1 1 1 2 1 2 2 4 5 3 3 4 4 5 5 5 6 6 6 6 6 5 5 5 6 5 4 3 3 3 4 5 5 5 3 3 2
17 20 20 20 20 21 20 20 19 18 18 17 15 14 13 12 11 10 9 9 9 9 9 9 9 8 8 8 7 7 7 7 7 7 7 7 7 6 5 4 3 4 3 4 3 3 2 1 2 2 2 2 2 2 2 4 5 4 3 3 3 3 4 4 4 5 5 6 5 5 5 6 7 5 2 3 2 1 2 3 4 4 4 4 3
15 19 20 20 20 21 20 20 19 18 18 17 16 15 14 13 12 11 10 10 9 9 9 9 9 9 8 7 7 8 8 8 8 9 9 8 8 7 6 5 5 4 4 4 3 3 3 3 3 4 3 3 2 1 1 2 3 3 3 3 3 3 3 3 3 3 4 4 4 5 5 6 6 5 2 2 2 1 0 0 2 2 2 3 3
14 19 20 21 21 21 20 20 19 18 18 18 17 16 15 14 14 13 12 11 11 11 11 10 10 10 9 8 8 9 9 9 9 9 9 9 8 7 6 6 5 5 4 3 3 3 4 5 5 5 5 5 4 3 1 0 1 3 3 3 3 3 3 2 2 2 2 2 3 3 5 5 3 4 3 2 2 2 1 1 1 2 2 1 0
13 18 20 21 21 22 21 20 20 19 18 19 19 17 16 15 15 15 14 13 12 12 12 11 11 11 11 10 9 9 9 9 9 9 10 10 9 8 7 7 6 6 5 4 5 4 5 6 6 6 6 6 5 4 3 2 2 4 4 3 3 3 3 3 3 3 2 1 1 2 3 3 3 3 2 2 3 3 2 2 1 1 1 0 1
12 17 20 21 22 22 22 21 20 19 18 19 20 19 17 17 16 16 15 14 14 13 12 12 12 12 12 10 9 9 8 8 8 8 9 10 10 9 9 8 7 6 6 5 6 5 5 6 6 6 6 6 6 6 6 5 6 7 6 5 4 4 4 4 4 4 3 2 2 2 3 4 4 3 2 3 4 5 4 2 2 1 1 0 0
11 15 20 21 22 21 21 21 20 20 19 19 20 20 19 18 18 17 16 16 15 14 14 13 12 12 11 10 9 9 9 8 8 8 8 8 8 9 10 9 8 7 8 8 8 7 6 6 7 7 7 7 8 7 7 7 10 10 9 8 7 6 6 6 6 6 5 4 4 3 4 5 5 5 4 4 5 6 5 4 3 3 2 2 2
12 14 18 21 21 21 20 20 20 19 19 19 19 20 20 19 19 19 18 17 16 16 15 14 12 11 10 10 10 10 10 10 9 9 8 8 7 8 9 10 10 10 11 11 10 9 8 8 8 8 8 8 8 9 10 11 12 12 10 9 8 8 8 8 8 8 8 7 6 6 5 5 5 7 7 7 8 7 6 5 5 5 5 4 4
12 14 17 20 21 20 20 21 21 20 19 19 19 19 19 19 19 19 18 18 17 17 16 14 11 10 10 11 11 12 12 11 11 11 11 10 8 8 9 9 10 11 11 12 11 11 10 10 11 11 11 10 10 11 12 13 12 11 10 10 9 8 8 8 9 9 10 10 9 9 8 7 6 7 8 10 11 9 7 6 7 8 7 7 7
12 14 17 19 21 20 20 21 21 21 20 19 19 18 18 18 19 19 19 18 18 17 16 13 11 11 12 13 13 14 14 13 13 14 13 12 11 10 10 10 11 11 12 12 12 12 11 11 11 11 11 11 12 12 12 12 10 9 9 8 7 7 7 7 8 9 10 11 11 11 10 9 8 7 8 11 12 11 9 9 8 9 9 9 9
13 14 16 19 21 20 20 21 21 22 21 20 19 18 17 18 18 19 19 18 17 16 15 14 14 14 14 15 15 15 16 16 16 16 15 14 13 13 12 13 13 14 13 13 12 11 10 10 10 10 10 10 10 10 10 9 7 6 5 4 3 3 3 3 4 6 8 10 12 12 12 11 10 8 10 13 14 13 11 11 11 11 10 11 11
14 14 15 17 19 20 21 21 22 22 21 21 19 19 18 18 18 18 18 18 16 15 15 16 17 17 17 17 17 18 18 18 18 17 16 15 14 14 14 14 14 15 14 13 12 11 9 8 8 8 8 8 7 7 6 4 3 2 2 2 2 2 2 1 1 2 4 6 9 11 12 13 12 11 13 15 15 14 12 12 11 11 11 12 12
14 14 15 16 18 20 22 22 23 22 22 21 20 20 20 20 19 19 18 17 16 16 17 18 19 19 18 19 20 19 19 19 20 18 17 15 14 13 13 13 13 13 13 12 10 9 8 7 7 7 6 5 3 2 1 1 1 1 2 2 2 3 3 2 2 1 1 2 4 7 10 13 14 14 15 15 16 16 14 13 12 11 12 13 13
14 15 16 16 17 19 21 23 23 23 22 21 21 21 21 21 20 19 19 18 18 19 20 20 21 21 20 20 21 20 19 20 19 16 14 13 12 12 11 12 11 11 11 9 8 7 7 6 6 4 2 1 0 0 0 1 1 2 2 2 3 3 3 3 3 3 2 2 2 3 6 9 13 15 15 15 16 16 15 15 13 13 15 15 14
14 15 16 17 18 19 20 22 23 23 23 22 22 22 21 21 21 20 19 20 21 21 21 21 21 21 21 20 21 20 20 19 18 13 10 10 11 10 10 10 10 9 8 7 6 6 5 5 3 2 2 1 1 1 1 1 2 2 2 2 3 3 3 3 3 3 3 3 3 3 4 6 8 12 14 15 16 15 15 14 13 15 17 16 16
14 15 16 17 18 19 20 22 22 23 23 23 22 22 22 22 22 20 19 20 21 21 21 21 20 20 21 21 20 20 20 18 15 11 9 10 10 9 9 9 9 8 6 6 5 5 5 4 4 4 3 2 2 2 2 2 2 3 3 3 4 4 4 4 4 4 4 4 4 4 5 5 6 8 11 14 16 16 15 14 14 16 17 17 18
15 16 17 18 18 19 21 22 22 23 23 23 23 23 23 22 22 21 20 20 20 20 20 20 20 20 21 20 19 18 18 15 12 10 9 10 10 9 9 8 8 7 6 6 5 6 6 6 5 5 4 3 3 2 2 2 3 4 4 5 5 5 5 4 4 4 5 5 5 6 6 6 6 7 9 11 13 15 15 15 15 17 18 18 19
17 17 18 18 19 20 22 22 23 23 24 24 24 24 24 23 22 21 21 21 21 21 20 20 21 21 20 20 18 17 16 13 10 10 10 10 10 9 9 8 7 7 7 7 7 7 7 6 6 5 4 4 3 3 3 3 4 4 5 5 5 5 5 4 4 4 4 5 6 6 7 7 8 8 9 10 11 12 13 14 15 17 18 19 20
18 19 19 19 20 21 23 23 24 24 25 25 25 25 24 24 24 23 22 22 22 22 22 22 22 22 21 20 19 17 16 14 12 11 12 11 11 10 10 9 8 8 8 9 9 8 7 7 6 5 4 4 3 3 3 4 4 5 5 5 5 5 4 4 4 4 4 5 6 7 8 8 9 9 10 11 11 11 12 12 14 15 17 19 20
20 21 21 21 21 22 23 24 24 25 26 26 26 26 25 25 25 24 24 23 23 23 23 23 23 22 22 20 19 17 16 15 14 13 13 13 12 11 10 10 10 10 10 10 10 9 8 7 6 5 4 4 3 4 4 4 5 5 4 4 4 4 3 4 4 4 5 6 7 8 9 9 10 11 12 12 12 12 12 12 12 13 15 16 18
21 22 22 23 23 24 24 24 25 26 26 27 27 27 27 26 26 26 26 25 24 24 24 24 23 22 21 20 18 18 17 16 15 15 15 14 13 12 11 10 10 11 11 11 10 9 8 7 6 6 5 4 4 4 5 5 5 4 4 4 3 3 2 3 3 4 5 6 7 8 9 10 11 12 13 13 13 13 13 13 13 13 13 14 15
22 23 24 25 25 25 25 26 25 25 26 27 27 27 27 27 28 28 27 27 26 25 26 25 24 23 21 20 19 19 18 17 17 17 15 14 13 13 12 11 11 11 11 11 10 9 8 7 7 6 5 5 5 5 5 5 5 4 4 4 3 3 2 2 2 3 4 6 7 8 10 11 12 13 14 14 14 14 14 14 13 13 13 13 13
24 24 24 26 27 27 26 26 26 26 27 27 28 28 28 29 29 29 29 28 28 27 27 27 25 24 22 20 20 20 19 19 19 17 16 15 14 14 13 13 13 12 12 11 11 10 9 9 8 7 6 6 6 5 5 5 5 5 4 4 3 3 2 2 2 2 3 4 6 7 9 10 12 13 14 14 15 15 15 14 14 14 13 13 13
25 25 26 27 27 28 27 27 27 27 28 28 28 29 29 30 31 31 30 30 30 29 29 28 27 25 22 22 22 20 20 20 20 19 18 17 17 16 15 15 15 14 13 13 12 11 10 10 9 8 7 6 6 6 5 5 4 4 4 4 3 3 3 2 2 2 2 3 4 6 7 9 11 12 13 14 15 15 15 15 14 14 13 13 13
24 26 28 28 27 27 28 28 29 29 30 30 29 30 30 31 32 32 32 32 32 31 31 30 28 26 24 24 24 21 21 22 22 21 20 19 19 18 18 17 17 16 15 14 13 12 12 11 11 9 8 7 6 6 5 4 4 4 4 4 4 4 3 3 3 3 3 3 4 5 6 7 9 11 12 13 14 14 15 15 14 14 13 13 12
24 25 26 27 26 27 29 30 31 31 31 31 31 31 32 33 33 33 33 33 33 33 32 32 30 28 26 26 25 23 23 25 25 24 23 21 21 20 19 19 18 17 16 15 15 14 14 13 12 11 9 8 7 6 5 4 4 4 4 4 4 4 4 4 4 3 4 4 4 5 5 6 8 10 11 12 13 13 14 14 14 14 13 13 12
24 24 25 25 26 27 29 31 32 32 33 33 33 33 33 34 34 33 34 34 34 34 34 33 32 30 29 27 26 26 26 27 27 27 25 24 22 22 21 20 19 19 18 18 17 16 16 14 13 12 10 9 7 6 5 5 4 5 5 4 4 5 5 5 4 4 5 5 5 6 6 6 8 9 10 11 12 12 12 12 13 13 13 12 11
25 25 25 25 26 26 28 31 32 33 34 34 35 35 34 34 35 35 35 35 35 35 35 34 34 32 31 29 28 28 27 28 29 29 28 26 25 23 23 22 22 21 20 20 19 18 17 16 15 13 12 10 8 7 6 5 5 5 5 5 5 5 6 6 6 5 5 6 6 6 7 7 8 8 9 10 11 11 9 9 9 10 11 10 9
25 25 25 25 25 26 28 30 32 33 34 35 36 37 36 35 36 36 36 36 36 36 36 36 35 34 33 32 31 30 29 29 30 30 30 28 26 25 24 24 24 23 22 22 20 19 19 18 16 14 13 11 9 8 7 6 5 5 6 6 6 7 7 7 7 6 6 6 6 7 7 8 8 8 9 10 10 9 8 7 6 8 10 10 8
25 25 26 26 25 27 28 30 32 33 34 36 37 37 37 36 37 37 38 37 37 37 37 37 36 36 35 34 33 32 31 30 31 31 31 30 28 27 26 26 25 25 24 23 22 21 20 19 17 15 14 12 11 10 8 7 6 6 6 6 6 7 7 7 7 7 7 7 7 7 8 8 8 8 9 10 10 10 10 8 8 8 9 8 5
27 28 27 26 26 27 29 30 32 33 35 37 38 37 37 37 37 38 39 39 38 38 37 37 38 38 38 36 35 34 33 32 32 33 33 32 30 29 28 27 27 26 25 24 23 22 21 20 19 17 16 14 13 11 9 8 7 6 6 6 7 7 7 7 8 8 8 7 8 8 8 9 9 9 9 10 10 11 10 9 10 10 9 7 4
33 31 29 29 28 28 29 30 32 34 35 37 37 37 37 38 38 39 39 40 39 39 39 39 40 40 39 38 37 36 35 34 34 34 34 34 32 31 30 29 28 27 26 25 24 24 23 22 20 19 18 16 14 12 10 9 8 7 7 7 7 8 8 8 8 8 8 8 8 8 9 9 9 9 10 10 10 10 11 11 11 10 8 6 4
36 34 32 32 31 30 30 30 32 34 35 36 37 37 37 38 39 39 40 41 41 41 41 40 40 40 41 40 39 38 38 37 36 35 35 35 34 33 32 30 29 28 27 26 26 25 24 23 23 21 20 17 15 14 11 10 8 8 7 8 8 8 9 9 9 9 9 9 9 9 9 9 10 10 10 10 10 10 10 11 11 10 7 5 6
34 34 34 33 32 32 31 31 32 34 34 36 38 38 37 38 39 40 42 42 42 43 42 41 41 41 42 41 41 41 40 39 38 37 36 36 36 35 33 32 31 29 28 28 27 27 26 26 25 23 21 19 17 15 13 11 10 9 8 8 8 9 9 10 10 10 10 9 9 9 9 9 10 10 9 9 9 9 10 10 11 12 10 10 12
27 28 28 28 29 32 32 32 32 33 35 37 37 37 37 38 39 41 42 43 43 43 44 44 43 42 42 43 43 43 42 42 41 39 38 37 37 37 36 34 33 31 31 30 29 29 28 28 26 24 22 20 19 17 15 13 12 10 10 9 9 9 10 10 10 10 10 10 10 10 9 9 9 9 9 9 9 9 9 10 10 12 12 13 13
21 22 22 22 24 27 29 31 32 33 35 36 36 37 38 39 40 42 43 43 43 44 45 45 44 43 43 44 44 44 44 43 42 41 39 39 38 38 38 37 35 33 33 32 32 31 30 29 28 25 23 22 21 19 17 15 13 12 11 10 9 9 10 10 10 10 10 10 10 10 10 10 9 9 9 9 9 9 9 10 10 11 11 12 13
17 17 18 19 20 22 24 27 29 31 33 35 37 38 39 40 41 43 44 44 44 45 46 46 46 45 45 45 45 45 45 45 44 42 41 40 39 39 39 38 37 36 35 34 34 33 32 31 29 27 26 24 22 20 19 16 15 14 12 12 10 10 10 10 10 10 11 10 10 11 10 10 9 9 10 9 10 10 10 10 11 11 11 11 12
15 14 16 17 18 20 22 24 26 29 32 34 37 39 40 41 42 44 45 45 46 46 46 47 47 47 47 46 46 45 46 46 45 44 43 42 40 40 40 40 39 38 38 36 36 35 34 32 30 29 28 26 24 22 20 18 17 15 14 13 11 11 10 10 11 10 10 11 11 11 11 10 10 10 10 10 10 11 11 11 11 12 12 12 11
13 12 13 14 16 18 20 22 25 27 30 32 36 38 40 42 44 45 46 47 48 48 48 47 48 49 49 48 46 46 46 47 47 46 45 44 42 41 41 41 41 41 40 39 39 37 35 34 33 31 30 28 27 24 22 20 18 16 15 14 12 11 11 11 11 11 11 11 11 11 11 10 10 10 10 10 11 11 11 12 12 12 12 12 12
11 11 12 14 15 16 18 20 22 25 27 30 34 36 39 42 44 46 46 47 49 49 49 49 50 50 50 50 48 48 48 47 47 47 47 46 44 43 42 42 43 44 43 42 41 39 37 36 35 33 32 30 28 26 24 22 19 18 16 15 13 12 12 12 11 11 11 11 11 11 11 11 11 11 11 11 11 11 11 12 12 12 13 13 13
10 12 14 16 17 17 18 19 21 23 25 29 31 34 37 40 42 44 45 46 48 48 50 51 52 52 51 51 51 50 49 49 48 48 49 48 46 46 44 44 45 45 44 43 42 40 38 37 36 35 33 32 30 29 27 24 21 19 18 16 14 14 13 13 12 12 12 12 12 12 12 12 12 12 12 12 11 11 11 12 12 13 13 13 13
8 10 13 14 16 17 19 20 21 23 24 27 30 32 35 37 39 40 42 44 46 47 49 51 52 53 53 52 52 52 51 50 50 50 50 50 49 48 47 46 46 46 45 44 43 41 40 39 38 37 35 34 33 31 29 26 23 22 20 17 15 14 14 13 12 13 13 13 13 14 14 14 14 13 13 12 12 11 11 11 12 12 13 13 13
6 6 8 10 13 15 16 18 20 22 23 26 28 30 32 34 36 38 40 42 43 45 47 50 51 52 53 53 53 53 53 53 52 51 51 51 51 50 48 46 46 46 46 45 44 43 42 41 40 39 38 36 35 33 30 28 26 24 20 16 15 13 12 15 16 15 15 15 15 15 15 15 14 14 13 13 12 12 11 11 12 12 13 13 14
7 7 8 11 13 14 16 17 18 20 21 23 24 27 30 31 33 35 37 39 41 43 45 46 49 51 53 54 54 54 54 54 53 52 52 52 52 51 49 48 46 46 46 46 46 46 45 44 42 41 40 39 38 35 32 31 29 26 22 16 14 12 10 14 17 17 17 16 17 17 17 16 15 14 14 13 12 12 12 12 12 12 13 14 14
12 11 11 12 14 15 16 17 18 19 19 19 20 24 27 28 31 33 35 38 40 41 43 45 47 50 52 53 53 54 54 55 54 53 52 52 52 51 50 49 48 47 47 47 47 47 47 46 45 44 43 41 40 37 34 33 31 29 26 20 14 11 11 13 14 15 17 17 18 19 18 18 17 16 15 15 14 13 13 13 13 13 14 14 15
16 14 12 12 13 14 14 14 16 18 19 18 17 20 24 26 28 30 32 35 37 38 40 42 44 45 46 48 49 50 52 53 54 53 52 52 52 52 51 50 49 48 47 48 48 48 48 47 46 45 44 43 41 39 37 35 33 32 31 28 20 15 14 14 12 11 15 18 19 20 21 20 19 19 19 18 17 16 15 15 14 14 14 15 16
20 17 14 13 13 12 12 11 12 14 15 15 14 16 20 23 25 28 30 32 34 36 37 38 39 40 42 43 44 45 47 49 51 53 52 52 52 53 53 52 51 49 48 48 49 49 48 48 46 45 44 43 43 42 39 36 35 34 33 31 29 23 19 16 14 12 12 16 19 21 23 23 22 22 23 23 22 20 18 16 15 15 15 16 16
22 20 18 17 16 15 14 13 12 12 12 12 11 12 15 18 21 24 27 29 31 34 35 36 37 38 39 40 41 41 42 44 48 50 51 52 52 53 53 53 52 51 50 50 49 49 48 48 46 45 45 45 45 43 41 39 37 36 34 32 31 29 25 22 20 16 12 13 17 20 23 23 24 24 24 25 24 22 19 17 16 15 16 17 16
27 26 23 21 21 21 20 19 17 17 16 14 13 11 12 14 17 20 23 26 28 31 33 34 35 36 37 38 38 38 39 40 43 46 49 50 52 53 54 54 54 53 52 51 50 49 48 48 47 47 47 47 46 44 43 42 39 36 35 33 32 30 28 25 22 20 17 14 14 17 20 21 23 23 23 23 23 22 20 18 16 15 17 17 17
31 30 29 27 26 26 24 23 21 20 19 18 17 16 14 14 14 17 19 22 25 28 30 32 33 35 36 36 37 37 37 37 38 41 44 47 49 52 53 55 55 54 53 51 51 50 49 48 48 48 47 47 46 46 45 43 41 39 36 34 33 31 29 27 25 23 21 18 16 18 19 19 20 21 21 22 22 22 21 19 16 16 18 18 18
32 31 31 30 30 29 27 26 25 22 21 19 17 16 15 15 14 15 17 19 21 24 27 29 31 33 34 35 36 36 36 35 35 37 40 42 46 50 52 54 55 55 54 53 52 51 50 48 47 47 48 48 48 47 47 45 43 41 39 37 36 33 31 30 27 24 22 21 20 21 20 18 19 19 20 21 21 21 21 19 17 18 19 20 20
Wind_Direction
190 198 201 202 204 206 207 198 191 186 183 182 183 182 182 183 183 184 184 184 183 183 184 187 186 186 186 185 187 185 184 182 181 181 183 184 190 199 206 214 223 248 258 274 291 311 4 84 214 170 182 282 342 68 68 60 59 57 61 60 58 56 57 60 64 67 72 75 80 93 93 92 101 100 95 92 80 74 70 67 69 72 70 68 77
198 199 198 202 203 207 211 206 199 193 189 186 186 184 184 185 185 188 188 189 187 187 187 189 192 195 197 200 203 200 199 199 198 200 202 205 210 215 222 228 236 250 256 263 274 280 275 253 253 249 245 277 336 51 75 71 60 54 53 49 50 49 49 49 56 63 70 78 84 97 102 101 109 116 119 106 93 80 69 62 67 69 72 70 60
203 201 198 201 202 207 212 212 207 202 198 191 191 188 188 188 189 192 192 195 195 196 197 198 201 203 204 206 210 211 210 209 210 211 213 216 220 223 227 231 231 235 241 248 251 253 245 225 230 248 262 269 280 290 57 65 53 40 29 21 19 20 25 25 34 48 65 81 90 104 114 114 119 132 145 130 129 183 215 70 89 92 106 92 73
202 202 201 202 203 207 213 216 214 212 205 197 197 194 193 193 193 194 196 200 201 202 203 206 208 209 207 206 213 220 221 221 223 223 224 223 223 225 224 223 220 220 222 216 211 218 217 216 226 240 252 254 251 249 251 138 38 4 358 360 357 353 349 344 349 4 42 80 102 124 132 125 132 145 159 185 187 207 233 246 167 135 164 163 193
198 201 203 204 206 208 212 217 218 218 211 202 201 200 200 197 196 195 197 201 204 206 207 211 214 216 213 211 217 226 230 231 231 230 232 231 227 222 219 215 209 210 201 188 194 203 216 225 234 244 250 249 245 246 244 231 290 318 320 324 325 323 317 312 309 308 320 326 129 151 164 152 165 168 176 220 229 230 226 232 210 150 154 173 315
195 200 205 207 208 210 212 216 218 220 215 208 205 205 203 200 199 198 200 202 205 210 213 218 220 222 222 219 222 232 234 229 227 231 235 236 228 217 214 208 200 201 191 189 202 212 224 232 243 250 255 253 250 247 241 253 287 298 297 294 290 285 283 283 285 284 283 272 235 196 200 192 192 200 214 233 242 243 239 244 244 206 187 197 314
197 199 205 209 211 212 213 215 218 218 215 212 210 209 208 204 203 203 206 209 211 214 218 221 221 223 226 224 227 235 232 222 221 227 232 233 224 213 210 201 191 194 197 205 218 227 230 233 242 250 256 258 254 246 245 268 287 290 287 281 275 270 266 264 265 266 266 263 252 230 217 218 211 212 221 234 242 241 244 254 261 248 235 240 250
200 199 204 209 213 214 213 214 217 217 215 215 214 213 213 210 208 210 213 217 220 221 222 221 221 223 226 227 227 230 227 221 221 225 230 231 224 209 206 203 200 204 211 221 233 237 236 237 242 246 251 251 246 245 258 276 285 285 282 277 270 262 258 256 254 252 252 252 251 245 232 229 226 228 228 232 240 241 245 253 258 254 250 257 261
204 200 203 208 213 215 213 215 216 217 216 217 217 217 217 215 215 216 218 221 224 226 227 225 225 225 225 227 224 224 224 220 225 234 238 236 233 224 216 217 221 225 229 237 246 249 246 244 245 248 250 248 247 254 267 277 281 279 278 276 271 265 257 251 248 246 244 244 245 246 244 237 233 239 240 242 249 251 252 253 260 260 257 262 266
210 202 203 207 212 214 215 216 217 218 217 218 218 218 219 219 219 221 222 222 222 224 227 225 219 216 220 222 219 222 225 224 233 243 246 243 241 239 234 234 239 244 248 251 257 260 255 250 251 254 256 256 260 266 273 277 277 277 276 275 273 268 261 252 246 243 241 240 241 242 243 242 238 240 245 248 254 253 252 254 261 265 264 266 265
216 210 206 206 210 212 215 218 219 220 220 220 219 219 219 219 219 219 221 221 221 222 219 214 209 210 215 217 215 223 229 233 243 249 249 248 245 245 244 241 244 250 257 261 262 266 263 259 259 262 264 265 268 272 275 278 280 282 281 281 279 275 269 258 247 242 240 238 238 239 239 238 237 239 243 248 255 255 253 256 259 264 267 265 262
222 219 214 211 211 211 215 219 221 223 224 224 222 222 222 221 221 219 218 216 214 212 207 207 209 210 213 217 221 228 234 239 248 252 252 253 251 250 248 244 242 248 257 262 265 270 272 271 272 273 274 274 274 274 275 280 285 297 304 316 325 327 330 316 291 255 243 239 238 238 238 236 233 239 245 249 256 258 256 255 256 260 263 264 266
228 226 223 219 215 213 214 218 222 225 226 228 226 225 226 225 224 219 213 207 201 200 201 207 211 213 215 223 230 234 239 244 251 255 257 257 255 252 248 245 244 246 253 261 269 276 280 282 283 282 282 279 278 274 274 293 310 322 325 329 328 328 325 322 318 304 282 253 242 239 239 238 238 242 247 249 254 257 257 253 250 252 257 263 270
230 231 229 225 221 218 217 219 222 225 226 228 228 228 229 229 228 219 209 201 198 201 206 211 215 219 224 230 234 238 242 248 255 259 258 257 253 248 244 245 247 248 251 259 267 277 283 285 284 283 278 254 211 193 282 309 318 321 323 323 318 317 310 306 303 297 294 285 274 254 244 242 243 244 246 250 254 255 254 252 249 251 257 262 266
229 231 232 229 225 223 220 222 223 223 225 227 227 229 229 231 231 221 210 204 204 208 213 218 222 225 231 235 237 241 246 251 256 258 252 248 245 241 240 242 245 245 246 249 256 263 264 263 254 229 200 188 206 255 292 305 313 321 323 322 316 312 308 304 300 297 296 294 296 291 273 258 251 248 247 250 256 258 256 254 251 252 257 261 262
231 231 231 230 227 226 224 224 225 224 226 226 226 227 228 229 230 225 217 214 215 218 221 227 230 232 237 242 245 245 249 250 250 248 237 235 233 231 235 237 239 237 235 237 237 232 221 210 200 197 204 217 232 249 273 294 309 316 317 316 314 311 308 306 303 301 301 302 302 299 291 281 271 261 254 253 258 262 263 259 255 255 257 259 261
237 235 231 230 227 226 226 226 226 226 227 227 227 227 227 228 229 227 224 224 225 228 230 233 238 242 245 248 249 246 247 249 245 237 228 229 227 225 227 229 230 227 225 221 210 200 193 190 195 203 209 217 224 236 260 283 297 302 305 304 304 304 302 300 299 300 299 301 303 299 294 291 287 278 271 265 264 268 271 270 267 264 261 260 260
241 240 235 232 229 227 227 227 227 227 227 228 227 227 226 226 228 228 228 228 229 233 236 238 241 245 248 248 246 241 243 247 243 235 228 226 224 221 222 223 221 216 210 200 194 192 192 196 200 205 208 211 217 231 257 275 286 290 291 291 291 291 291 293 292 291 291 292 295 294 292 292 290 285 282 280 278 279 280 279 275 272 269 266 264
245 242 238 236 233 230 228 228 227 227 227 227 228 227 226 225 227 227 228 229 230 234 237 240 242 245 247 247 244 239 239 241 237 234 229 225 223 220 219 217 213 205 197 192 193 195 198 202 203 205 205 209 222 245 266 279 284 285 285 282 283 281 280 279 279 278 278 280 281 282 285 286 285 284 283 283 284 285 285 282 278 276 273 272 270
250 245 241 240 237 234 231 230 230 229 228 228 229 228 227 226 226 227 228 229 231 234 237 240 242 243 245 245 244 239 237 236 232 229 226 224 222 220 217 212 206 198 193 194 196 199 202 204 205 206 210 221 242 264 279 287 289 289 288 285 283 281 277 269 263 262 262 266 270 274 278 280 281 280 280 282 283 284 285 283 279 277 274 274 274
254 251 247 243 239 238 236 234 233 232 232 230 229 229 229 228 227 228 228 229 230 232 235 238 240 242 245 243 241 238 236 233 229 226 223 223 223 220 217 211 204 198 196 198 200 202 205 206 208 211 220 239 260 278 287 293 295 295 293 291 293 290 285 275 262 254 252 255 258 263 269 273 276 276 277 277 279 282 282 282 281 279 276 275 275
258 256 253 248 244 241 239 238 237 236 235 234 232 230 230 229 229 230 229 229 229 229 232 235 238 241 243 241 238 236 234 231 227 224 224 224 224 221 216 211 206 202 201 203 205 208 211 211 212 219 230 249 266 281 289 295 298 300 302 301 303 303 300 291 274 261 253 253 252 254 258 262 267 269 271 272 275 278 280 282 282 282 281 279 277
261 259 258 254 249 246 242 241 241 239 238 238 236 233 231 230 230 231 231 231 229 229 230 232 234 237 239 237 235 234 232 230 226 223 224 225 224 221 215 211 209 207 207 208 211 214 215 215 217 224 234 251 266 278 287 294 300 304 308 310 313 315 316 310 293 279 266 262 258 256 255 257 261 265 268 269 272 276 279 281 282 282 282 282 280
266 263 260 257 253 250 248 245 243 242 240 239 238 235 233 232 231 231 232 231 231 229 230 231 232 233 235 234 233 231 228 228 225 222 222 224 222 219 215 212 210 209 210 212 215 217 219 219 222 228 238 252 263 273 282 292 301 307 313 320 323 325 323 318 309 297 285 278 271 265 261 259 260 263 266 268 271 275 278 280 282 282 281 280 279
268 263 258 256 255 253 251 249 246 244 242 241 240 238 236 234 233 232 232 232 232 231 231 232 232 231 231 231 232 228 225 225 223 221 222 223 222 219 217 214 211 211 211 214 218 219 220 222 225 231 240 251 259 268 280 293 303 314 321 326 328 327 324 321 316 305 296 287 279 273 266 261 260 261 263 266 268 272 275 278 280 280 280 279 278
269 262 258 256 254 252 251 249 247 246 244 243 243 241 239 237 236 235 234 233 233 233 232 233 233 231 230 230 230 226 223 223 222 221 222 223 223 221 218 216 213 212 213 216 217 219 221 222 226 233 240 248 255 265 278 291 305 317 325 329 329 327 324 320 316 311 304 298 292 284 276 266 262 261 263 266 268 270 273 275 277 276 275 274 274
270 264 260 255 251 248 246 246 246 247 245 244 243 243 241 239 238 238 237 236 236 235 234 234 233 232 230 230 229 226 224 222 222 222 222 223 223 221 218 216 214 213 214 216 218 219 221 222 226 232 237 242 248 258 270 284 301 314 323 328 328 325 323 318 314 311 308 306 303 297 290 279 269 267 267 269 271 272 273 273 274 273 272 271 270
264 260 256 251 247 244 244 245 244 245 246 245 243 243 243 241 240 239 239 239 239 238 237 236 235 233 231 230 229 227 225 224 223 223 223 223 222 221 218 215 214 214 215 217 218 219 220 222 225 229 233 237 242 251 263 277 294 310 321 326 328 327 322 318 314 312 309 308 306 302 297 288 280 274 272 272 271 270 268 264 264 266 268 268 267
263 259 258 253 248 244 242 242 242 242 244 244 244 243 243 242 242 241 240 240 240 240 240 239 238 236 233 231 230 229 227 226 225 224 224 224 223 221 218 216 215 215 216 218 219 219 219 221 224 227 230 233 239 247 258 271 287 304 316 322 325 324 320 318 313 311 310 307 306 303 299 295 288 282 276 270 264 260 255 251 247 253 264 267 262
274 268 265 262 257 251 244 241 241 242 243 244 244 243 243 243 242 242 241 241 241 241 241 240 239 238 236 234 232 231 230 228 228 226 226 225 224 222 219 218 218 217 217 219 220 220 221 222 224 226 228 232 237 245 254 264 279 294 307 313 317 317 314 312 309 307 307 306 305 302 300 297 292 285 275 266 259 253 250 251 249 248 257 262 249
287 280 276 271 264 260 253 247 244 243 243 243 244 243 242 242 243 243 242 242 242 242 242 241 240 239 238 236 234 233 232 231 230 229 228 226 225 223 221 220 220 219 218 220 221 222 222 222 224 226 228 231 236 243 251 259 271 285 298 306 311 312 310 307 305 304 304 303 302 301 300 298 294 286 274 263 254 248 245 246 247 243 244 243 211
288 287 285 278 270 266 262 255 248 244 243 243 244 243 241 241 242 242 243 243 243 243 243 242 241 240 239 238 236 234 234 233 231 230 229 228 226 224 223 222 222 222 220 221 222 223 224 224 225 226 228 231 236 243 249 257 267 279 292 300 306 307 306 304 302 302 302 301 300 299 297 296 294 287 278 268 256 247 243 241 239 236 236 231 199
287 286 284 278 274 269 265 260 254 248 244 243 244 244 242 241 241 241 242 243 242 243 242 243 243 242 241 238 236 235 234 234 233 232 231 229 228 226 225 224 224 224 223 223 223 225 225 225 225 226 229 231 236 241 246 252 261 272 282 291 298 300 302 301 301 301 299 299 297 295 294 293 290 286 283 277 268 258 250 244 238 230 225 224 227
288 285 280 277 275 272 268 265 258 252 246 243 243 244 243 242 241 240 241 242 242 243 243 243 243 242 242 240 237 236 235 235 235 233 232 230 229 227 226 225 225 225 225 225 225 226 226 226 227 228 229 231 234 239 242 247 255 263 272 281 288 293 297 298 299 300 298 298 295 292 290 288 287 283 280 277 273 268 259 251 242 234 235 241 243
290 285 281 278 274 270 268 266 261 255 249 245 242 242 242 242 242 241 241 241 241 242 242 242 242 243 243 241 239 237 236 235 235 234 232 232 231 228 227 226 226 226 225 226 226 227 228 228 228 228 229 231 233 237 239 243 248 255 263 270 277 285 290 293 295 295 294 293 291 288 286 282 281 280 278 274 271 269 264 259 250 242 243 244 245
295 289 284 278 272 268 265 263 261 256 252 248 245 243 242 242 242 243 242 241 241 242 242 243 243 243 243 242 241 239 237 236 236 235 233 233 232 230 229 227 226 226 226 227 227 228 229 228 228 228 229 231 233 235 237 239 243 248 253 259 266 274 282 286 290 292 291 290 286 283 281 278 275 272 271 270 268 267 265 262 257 251 248 245 244
304 298 288 279 272 268 265 261 259 257 254 252 248 245 243 242 242 243 244 242 241 241 242 243 243 243 243 243 242 241 239 237 237 236 235 234 233 232 231 229 227 227 227 227 228 229 229 228 228 227 228 231 233 234 235 236 238 242 246 251 258 266 276 283 287 290 289 286 283 280 277 273 271 268 266 266 265 264 264 263 261 259 255 250 247
314 308 295 283 273 269 265 261 260 259 257 254 252 248 245 244 243 243 243 244 243 242 242 242 242 243 242 242 243 242 241 239 237 236 235 235 234 233 232 231 229 228 228 228 229 229 229 229 228 228 228 229 230 231 233 235 236 238 241 246 252 261 271 278 281 282 281 280 277 274 272 269 266 265 264 263 263 262 262 262 261 261 259 256 252
328 321 308 292 278 268 262 259 260 261 260 257 255 252 249 246 245 243 243 243 243 242 242 242 242 242 242 242 242 242 242 240 238 237 236 235 234 234 233 231 229 229 228 228 228 229 228 228 228 227 227 228 229 230 232 232 232 234 238 242 247 256 266 271 273 273 273 271 268 265 262 261 259 258 259 259 259 258 257 257 257 258 258 255 252
343 333 320 308 296 283 270 263 261 263 264 262 259 255 252 249 247 245 242 242 242 242 241 241 242 242 242 242 242 242 242 240 239 237 236 236 235 234 233 231 229 229 228 228 229 229 229 229 228 228 227 227 228 229 229 228 227 229 232 237 243 251 259 264 266 267 266 262 258 256 253 251 251 251 253 254 254 253 251 250 249 249 250 248 246
343 331 323 318 312 303 290 280 274 270 267 266 264 261 257 254 251 249 246 244 243 242 242 241 241 241 241 241 241 241 241 240 239 237 236 236 235 234 233 231 230 229 229 230 231 231 230 230 229 228 226 227 227 227 226 224 223 224 226 229 237 245 252 256 259 260 259 256 252 250 248 246 246 247 248 250 250 250 249 247 246 245 244 242 240
344 330 324 319 314 308 301 295 289 282 276 272 270 268 265 262 259 257 254 250 247 245 244 243 243 242 242 241 241 241 240 240 239 237 236 236 235 234 233 232 231 230 230 230 231 231 231 230 229 227 225 226 228 228 226 222 219 222 226 229 231 237 245 248 252 254 250 249 248 246 245 243 243 244 246 248 249 249 250 249 249 247 245 242 239
350 320 309 306 305 305 302 299 294 290 286 281 277 275 271 268 265 262 259 256 253 251 249 248 247 246 246 245 243 242 241 241 240 237 236 235 235 235 234 233 232 232 231 230 230 230 230 231 230 228 226 225 225 226 226 223 219 218 220 226 229 229 237 243 244 247 246 244 243 241 240 239 238 240 241 244 247 249 250 251 251 250 248 246 243
1 331 316 310 308 307 303 298 293 290 287 284 282 280 275 272 268 265 262 259 257 256 254 253 252 250 249 248 246 245 243 243 242 239 237 236 236 236 235 234 234 233 233 232 231 230 230 230 229 228 227 225 224 224 223 222 220 216 212 213 220 217 226 242 240 241 243 241 240 238 236 234 233 234 237 240 244 249 252 254 254 254 252 250 247
20 3 350 337 330 322 313 304 297 292 288 287 285 281 277 275 271 266 263 260 259 258 256 255 253 252 251 250 248 246 245 244 243 242 239 238 237 237 237 236 235 234 234 233 233 232 232 231 230 228 228 227 227 226 224 222 220 219 217 213 213 209 222 239 235 236 241 238 239 238 235 234 233 235 238 240 245 251 255 257 258 258 255 251 247
36 29 19 6 354 342 329 318 307 301 295 290 286 284 281 278 275 271 268 266 266 265 263 262 261 260 259 257 255 252 250 247 246 244 242 240 239 238 238 237 236 235 235 235 234 233 233 233 232 230 230 229 228 228 227 224 220 220 222 224 226 224 227 230 220 225 236 236 239 239 236 236 236 241 245 246 249 252 255 259 260 259 255 249 245
42 42 37 29 19 7 356 343 329 320 311 300 292 289 286 283 282 280 278 276 275 274 274 273 272 271 268 266 264 261 257 253 250 248 245 242 240 239 239 238 237 236 235 235 235 234 234 234 233 233 232 230 229 229 229 227 222 221 224 227 232 233 234 235 227 225 229 233 240 240 239 240 239 245 251 252 252 251 253 259 259 257 252 245 240
44 46 43 38 35 32 27 20 9 360 344 326 315 306 296 290 288 285 282 280 279 277 277 277 275 275 273 271 269 266 262 257 254 251 247 244 242 240 240 240 239 237 236 236 236 236 235 234 234 233 233 231 230 230 230 229 227 226 226 227 231 233 236 240 240 239 234 236 243 242 242 242 241 244 250 253 252 247 249 257 258 254 247 240 234
46 47 46 43 43 44 44 41 36 29 18 5 355 344 323 306 297 291 286 285 282 279 279 279 278 276 276 274 273 271 268 263 258 255 251 247 244 242 241 240 240 239 238 237 237 237 236 235 234 233 232 231 231 231 231 232 230 230 230 229 231 232 233 237 239 240 238 236 243 247 246 242 239 241 245 249 247 242 247 255 253 247 239 233 225
47 48 48 47 46 47 49 48 47 45 40 32 22 13 358 338 321 307 299 294 289 286 285 283 281 280 279 278 276 274 273 269 265 260 256 251 247 244 242 241 241 240 240 239 238 238 238 236 235 234 233 232 232 231 231 233 232 233 233 232 232 231 229 231 233 236 239 238 240 248 252 246 240 240 241 242 241 241 246 250 247 238 230 227 219
45 46 46 45 45 46 47 46 45 45 44 43 38 29 15 359 343 329 319 309 300 296 293 290 287 286 284 282 280 279 278 276 272 267 262 257 251 247 244 242 241 241 241 240 240 240 239 238 236 235 234 234 233 232 232 233 232 232 232 232 233 232 232 235 236 238 241 242 241 246 251 247 240 239 238 238 238 240 244 244 241 232 226 225 218